Simultaneous Nadir Overpasses (SNOs) Predictions

Prediction of SNOs between GOES-15 and TERRA Satellite Orbit:

Table of predicted SNOs for the next 14.0 days since TLE Epoch: 8/8/2025
Index Date Time (GOES-15) GOES-15 Lat,Lon TERRA Lat,Lon Distance(km) Time Diff (sec)
1 08/09/2025 04:56:02 0.07, 61.47 -0.66, 64.98 397.96 80
2 08/09/2025 17:18:17 -0.12, 61.58 -0.39, 60.22 154.05 80
3 08/11/2025 16:56:23 -0.09, 61.61 0.59, 64.85 368.50 80
4 08/12/2025 05:18:28 0.14, 61.52 0.45, 60.13 158.05 80
5 08/14/2025 04:56:34 0.11, 61.55 -0.56, 64.76 364.04 80
6 08/14/2025 17:18:49 -0.16, 61.66 -0.50, 60.00 188.45 80
7 08/16/2025 16:56:54 -0.14, 61.70 0.46, 64.64 332.93 80
8 08/17/2025 05:18:58 0.19, 61.62 0.56, 59.92 193.81 80
9 08/19/2025 04:57:03 0.16, 61.67 -0.41, 64.55 326.83 80
10 08/19/2025 17:19:18 -0.21, 61.78 -0.63, 59.79 226.14 80
11 08/21/2025 16:57:23 -0.18, 61.84 0.36, 64.43 294.49 80
12 08/22/2025 05:19:28 0.23, 61.75 0.66, 59.71 232.19 80
